FW2823 Weather Reports


time (UTC)temp
F
wind
direction
speed
knots
gust
knots
rain 1hr
in
rain 24hr
in
rain mn
in
humidity
%
barometer
mb
20260506182022 83 293 0.0 1.7 0.00 0.00 0.00 43 1013.9
20260506181016 79 248 1.7 9.6 0.00 0.00 0.00 53 1014.0
20260506180456 82 225 3.5 9.6 0.00 0.00 0.00 47 1013.8
20260506175944 84 248 0.0 6.1 0.00 0.00 0.00 41 1014.5
20260506175431 80 135 1.7 7.8 0.00 0.00 0.00 42 1014.3
20260506174938 82 203 3.5 7.8 0.00 0.00 0.00 39 1014.0
20260506174412 82 225 1.7 7.0 0.00 0.00 0.00 38 1014.2
20260506173904 83 158 1.7 7.0 0.00 0.00 0.00 36 1014.2
20260506172842 85 225 1.7 7.8 0.00 0.00 0.00 36 1014.3
20260506172334 88 293 0.9 5.2 0.00 0.00 0.00 18 1014.3
20260506171823 88 270 0.0 7.8 0.00 0.00 0.00 29 1014.2
20260506170800 89 293 0.0 1.7 0.00 0.00 0.00 33 1014.3
20260506170250 87 45 0.9 1.7 0.00 0.00 0.00 29 1014.5
20260506165744 87 293 0.0 3.5 0.00 0.00 0.00 28 1014.6
20260506165239 85 248 0.0 3.5 0.00 0.00 0.00 27 1014.7
20260506164720 83 90 1.7 6.1 0.00 0.00 0.00 30 1014.7
20260506164209 84 135 2.6 6.1 0.00 0.00 0.00 31 1014.7
20260506163659 85 135 1.7 3.5 0.00 0.00 0.00 28 1015.0
20260506163206 85 248 1.7 6.1 0.00 0.00 0.00 25 1015.1
20260506162645 84 180 0.9 6.1 0.00 0.00 0.00 32 1015.0
20260506162142 83 158 3.5 6.1 0.00 0.00 0.00 29 1015.1
20260506161632 83 113 1.7 5.2 0.00 0.00 0.00 30 1015.1
20260506161121 83 248 1.7 3.5 0.00 0.00 0.00 33 1015.6
20260506160602 83 135 1.7 3.5 0.00 0.00 0.00 33 1015.6
20260506160101 83 248 0.9 5.2 0.00 0.00 0.00 31 1015.7
20260506155538 83 158 1.7 5.2 0.00 0.00 0.00 30 1016.0
20260506155028 82 248 0.0 3.5 0.00 0.00 0.00 31 1016.0
20260506154518 82 248 0.9 6.1 0.00 0.00 0.00 32 1015.9
20260506154011 80 158 2.6 6.1 0.00 0.00 0.00 35 1016.0
20260506153458 81 248 0.0 5.2 0.00 0.00 0.00 36 1016.3
20260506152947 83 225 2.6 5.2 0.00 0.00 0.00 40 1016.3
20260506152438 82 270 0.9 3.5 0.00 0.00 0.00 38 1016.3
20260506151927 82 158 1.7 5.2 0.00 0.00 0.00 36 1016.3
20260506151422 82 135 1.7 5.2 0.00 0.00 0.00 35 1016.6
20260506150908 81 293 0.9 3.5 0.00 0.00 0.00 36 1016.6
20260506150357 80 293 0.0 1.7 0.00 0.00 0.00 46 1016.6
20260506145847 77 315 1.7 1.7 0.00 0.00 0.00 42 1017.3
20260506144829 74 270 0.0 3.5 0.00 0.00 0.00 44 1017.5
20260506144316 73 248 0.9 3.5 0.00 0.00 0.00 45 1017.8
20260506143808 72 158 1.7 3.5 0.00 0.00 0.00 51 1017.8
20260506143256 73 45 0.0 1.7 0.00 0.00 0.00 44 1017.9
20260506142746 72 68 0.0 1.7 0.00 0.00 0.00 47 1017.9
20260506142239 69 248 0.9 1.7 0.00 0.00 0.00 52 1018.0
20260506141738 69 203 0.0 3.5 0.00 0.00 0.00 54 1018.2
20260506141215 68 135 1.7 3.5 0.00 0.00 0.00 53 1018.3
20260506140707 68 135 1.7 3.5 0.00 0.00 0.00 53 1018.5
20260506140201 67 135 1.7 3.5 0.00 0.00 0.00 55 1018.5
20260506135648 67 135 0.0 1.7 0.00 0.00 0.00 54 1018.2
20260506134628 66 113 0.0 3.5 0.00 0.00 0.00 58 1018.6
20260506134115 65 315 0.0 3.5 0.00 0.00 0.00 58 1018.7
20260506133605 63 293 0.9 7.0 0.00 0.00 0.00 58 1018.6
20260506133058 62 45 3.5 7.0 0.00 0.00 0.00 59 1018.9
20260506132544 63 293 0.0 3.5 0.00 0.00 0.00 59 1018.9
20260506132048 62 315 0.9 1.7 0.00 0.00 0.00 55 1018.9
20260506131524 60 90 0.0 1.7 0.00 0.00 0.00 65 1018.9
20260506131014 59 90 0.9 1.7 0.00 0.00 0.00 62 1019.0
20260506130521 58 135 0.0 1.7 0.00 0.00 0.00 66 1018.7
20260506124933 53 45 2.6 5.2 0.00 0.00 0.00 71 1018.8
20260506123917 51 90 1.7 3.5 0.00 0.00 0.00 79 1019.0
20260506122852 51 0 0.9 3.5 0.00 0.00 0.00 74 1018.9
20260506121833 51 23 2.6 6.1 0.00 0.00 0.00 72 1019.0
20260506121325 50 338 2.6 7.0 0.00 0.00 0.00 73 1019.5
20260506120812 46 315 3.5 7.0 0.00 0.00 0.00 72 1019.3
20260506115751 44 315 0.9 3.5 0.00 0.00 0.00 91 1019.4
20260506115242 44 45 3.5 3.5 0.00 0.00 0.00 91 1019.3
20260506114734 43 0 0.9 3.5 0.00 0.00 0.00 91 1019.3
20260506114221 43 338 1.7 3.5 0.00 0.00 0.00 92 1019.5
20260506113201 43 315 0.9 3.5 0.00 0.00 0.00 92 1018.9
20260506112145 43 0 1.7 5.2 0.00 0.00 0.00 91 1019.3
20260506111631 43 293 0.0 5.2 0.00 0.00 0.00 91 1019.0
20260506111125 43 0 1.7 3.5 0.00 0.00 0.00 91 1019.0
20260506110610 42 0 1.7 1.7 0.00 0.00 0.00 92 1019.2
20260506110112 42 135 0.0 3.5 0.00 0.00 0.00 92 1018.8
20260506105552 43 135 0.9 3.5 0.00 0.00 0.00 91 1018.9
20260506105040 43 293 1.7 3.5 0.00 0.00 0.00 91 1018.7
20260506104530 43 90 0.9 5.2 0.00 0.00 0.00 91 1018.9
20260506103510 42 68 0.0 1.7 0.00 0.00 0.00 95 1018.8
20260506103003 42 338 1.7 1.7 0.00 0.00 0.00 94 1018.9
20260506102449 42 315 0.0 1.7 0.00 0.00 0.00 93 1018.6
20260506101939 42 338 0.9 3.5 0.00 0.00 0.00 93 1018.6
20260506101429 42 158 0.9 3.5 0.00 0.00 0.00 92 1018.6
20260506100919 42 0 1.7 3.5 0.00 0.00 0.00 93 1018.3
20260506095348 42 68 0.9 1.7 0.00 0.00 0.00 93 1018.5
20260506094838 43 135 0.9 1.7 0.00 0.00 0.00 92 1018.5
20260506094328 43 0 0.0 1.7 0.00 0.00 0.00 90 1018.5
20260506093821 43 0 0.0 1.7 0.00 0.00 0.00 90 1018.5
20260506092758 43 338 1.7 3.5 0.00 0.00 0.00 88 1018.2
20260506092247 43 23 2.6 3.5 0.00 0.00 0.00 91 1018.3
20260506091738 43 45 0.9 3.5 0.00 0.00 0.00 92 1018.5
20260506091231 43 68 0.0 3.5 0.00 0.00 0.00 92 1018.5
20260506090717 43 293 1.7 3.5 0.00 0.00 0.00 91 1018.5
20260506090212 43 23 1.7 3.5 0.00 0.00 0.00 93 1018.5
20260506085656 42 315 2.6 3.5 0.00 0.00 0.00 93 1018.8
20260506085153 43 23 2.6 3.5 0.00 0.00 0.00 93 1018.9
20260506084639 42 315 1.7 1.7 0.00 0.00 0.00 93 1018.7
20260506084126 43 315 0.0 3.5 0.00 0.00 0.00 93 1019.0
20260506083616 43 0 0.0 3.5 0.00 0.00 0.00 92 1019.0
20260506083107 43 338 1.7 3.5 0.00 0.00 0.00 92 1019.2
20260506082049 44 293 0.9 3.5 0.00 0.00 0.00 89 1019.3
20260506081536 44 315 0.9 1.7 0.00 0.00 0.00 89 1019.4
20260506081026 45 293 0.9 5.2 0.00 0.00 0.00 88 1019.5
20260506080515 45 0 1.7 5.2 0.00 0.00 0.00 87 1019.4
20260506073415 44 315 2.6 3.5 0.00 0.00 0.00 92 1019.6
20260506072907 44 68 1.7 3.5 0.00 0.00 0.00 92 1019.5
20260506072354 45 293 1.7 3.5 0.00 0.00 0.00 91 1019.7
20260506071334 45 315 1.7 3.5 0.00 0.00 0.00 92 1019.6
20260506070316 45 315 0.0 3.5 0.00 0.00 0.00 92 1019.7
20260506061642 47 23 1.7 3.5 0.00 0.00 0.00 86 1020.1
20260506061135 47 68 1.7 3.5 0.00 0.00 0.00 85 1020.2
20260506060119 47 23 1.7 5.2 0.00 0.00 0.00 88 1020.6
20260506051026 48 293 1.7 3.5 0.00 0.00 0.00 89 1020.3
20260506050520 47 0 1.7 3.5 0.00 0.00 0.00 91 1020.4
20260506044436 48 293 0.9 3.5 0.00 0.00 0.00 91 1020.3
20260506043415 49 23 0.0 3.5 0.00 0.00 0.00 89 1020.6
20260506042905 49 45 0.9 3.5 0.00 0.00 0.00 91 1020.4
20260506042408 49 338 1.7 3.5 0.00 0.00 0.00 90 1020.7
20260506041845 50 270 0.0 3.5 0.00 0.00 0.00 90 1020.7
20260506041337 50 248 0.9 3.5 0.00 0.00 0.00 90 1020.7
20260506040825 51 315 1.7 5.2 0.00 0.00 0.00 87 1020.7
20260506040314 50 0 1.7 5.2 0.00 0.00 0.00 88 1020.6
20260506035804 50 293 1.7 3.5 0.00 0.00 0.00 91 1020.8
20260506035255 50 293 0.9 3.5 0.00 0.00 0.00 90 1020.8
20260506034748 50 293 1.7 3.5 0.00 0.00 0.00 91 1021.3
20260506034241 50 68 0.9 1.7 0.00 0.00 0.00 90 1020.8
20260506033724 51 68 0.9 3.5 0.00 0.00 0.00 90 1020.8
20260506033214 51 113 0.9 3.5 0.00 0.00 0.00 88 1021.0
20260506032704 51 0 0.9 3.5 0.00 0.00 0.00 89 1021.0
20260506032156 51 0 1.7 3.5 0.00 0.00 0.00 91 1021.3
20260506031133 51 315 0.0 3.5 0.00 0.00 0.00 91 1021.6
20260506030623 52 23 0.0 3.5 0.00 0.00 0.00 89 1021.5
20260506030114 52 338 0.9 3.5 0.00 0.00 0.00 89 1021.6
20260506025611 52 45 1.7 5.2 0.00 0.00 0.00 88 1021.5
20260506025052 52 293 2.6 5.2 0.00 0.00 0.00 90 1021.6
20260506024545 52 23 1.7 3.5 0.00 0.00 0.00 88 1021.7
20260506023015 52 0 0.9 3.5 0.00 0.00 0.00 90 1022.1
20260506022503 52 315 0.9 3.5 0.00 0.00 0.00 88 1022.0
20260506021951 52 315 0.9 3.5 0.00 0.00 0.00 90 1022.2
20260506021444 52 23 2.6 3.5 0.00 0.00 0.00 88 1022.4
20260506020932 52 0 0.0 3.5 0.00 0.00 0.00 88 1022.2
20260506020451 53 23 1.7 3.5 0.00 0.00 0.00 87 1022.0
20260506015911 52 315 1.7 3.5 0.00 0.00 0.00 90 1022.2
20260506015414 52 338 1.7 3.5 0.00 0.00 0.00 90 1022.1
20260506014851 52 338 1.7 3.5 0.00 0.00 0.00 89 1022.3
20260506014342 53 0 1.7 3.5 0.00 0.00 0.00 89 1022.2
20260506013834 52 23 2.6 3.5 0.00 0.00 0.00 89 1022.0
20260506013320 52 0 1.7 3.5 0.00 0.00 0.00 90 1022.1
20260506012300 53 315 0.9 1.7 0.00 0.00 0.00 90 1022.1
20260506011243 54 338 0.9 3.5 0.00 0.00 0.00 88 1021.7
20260506010730 54 23 1.7 3.5 0.00 0.00 0.00 86 1021.6
20260506005159 55 0 0.0 3.5 0.00 0.00 0.00 87 1021.0
20260506004653 55 23 1.7 3.5 0.00 0.00 0.00 87 1021.1
20260506004139 55 315 2.6 3.5 0.00 0.00 0.00 88 1021.0
20260506003632 56 23 1.7 3.5 0.00 0.00 0.00 86 1021.0
20260506003120 55 293 0.9 3.5 0.00 0.00 0.00 87 1020.8
20260506002610 55 45 1.7 1.7 0.00 0.00 0.00 88 1021.0
20260506001550 55 23 0.0 3.5 0.00 0.00 0.00 88 1020.9
20260506001039 55 338 1.7 1.7 0.00 0.00 0.00 88 1020.8
20260506000019 56 315 0.0 3.5 0.00 0.00 0.00 87 1020.8
20260505235512 55 338 0.9 3.5 0.00 0.00 0.00 87 1020.8
20260505234958 55 23 0.9 1.7 0.00 0.00 0.00 87 1020.9
20260505234447 56 315 0.0 0.0 0.00 0.00 0.00 85 1020.6
20260505233937 56 315 0.0 1.7 0.00 0.00 0.00 84 1020.6
20260505233427 56 315 0.0 3.5 0.00 0.00 0.00 82 1020.3
20260505232921 57 338 0.0 3.5 0.00 0.00 0.00 81 1020.2
20260505232410 56 23 1.7 3.5 0.00 0.00 0.00 81 1020.6
20260505231857 56 338 1.7 3.5 0.00 0.00 0.00 80 1020.4
20260505231346 56 45 1.7 3.5 0.00 0.00 0.00 81 1020.4
20260505230838 56 315 1.7 3.5 0.00 0.00 0.00 82 1020.2
20260505230357 56 23 1.7 3.5 0.00 0.00 0.00 82 1020.2
20260505225432 56 338 1.7 3.5 0.00 0.00 0.00 80 1020.2
20260505224921 56 0 1.7 1.7 0.00 0.00 0.00 82 1020.3
20260505224412 56 293 0.0 1.7 0.00 0.00 0.00 83 1020.0
20260505222330 57 248 0.0 1.7 0.00 0.00 0.00 79 1019.7
20260505221821 58 293 0.0 1.7 0.00 0.00 0.00 77 1019.6
20260505221311 58 45 1.7 3.5 0.00 0.00 0.00 73 1019.4
20260505220804 59 315 0.9 3.5 0.00 0.00 0.00 77 1019.4
20260505220250 58 23 0.9 3.5 0.00 0.00 0.00 76 1019.3
20260505215739 59 338 0.9 1.7 0.00 0.00 0.00 78 1019.4
20260505215239 58 315 0.9 1.7 0.00 0.00 0.00 80 1019.3
20260505214720 59 315 0.0 1.7 0.00 0.00 0.00 78 1019.2
20260505214213 60 315 0.0 1.7 0.00 0.00 0.00 79 1019.2
20260505213700 59 45 1.7 1.7 0.00 0.00 0.00 77 1019.3
20260505213149 60 315 0.9 1.7 0.00 0.00 0.00 82 1019.2
20260505212639 60 315 0.0 1.7 0.00 0.00 0.00 81 1019.2
20260505212130 60 315 0.0 1.7 0.00 0.00 0.00 80 1019.0
20260505211109 61 315 1.7 1.7 0.00 0.00 0.00 77 1019.2
20260505210558 62 315 0.9 1.7 0.00 0.00 0.00 77 1019.0
20260505210109 62 293 1.7 1.7 0.00 0.00 0.00 76 1018.8
20260505205550 62 293 0.9 1.7 0.00 0.00 0.00 76 1018.8
20260505205032 63 315 0.9 1.7 0.00 0.00 0.00 72 1018.8
20260505204518 63 315 1.7 1.7 0.00 0.00 0.00 73 1018.7
20260505204011 64 315 1.7 1.7 0.00 0.00 0.00 68 1018.8
20260505203458 65 293 1.7 1.7 0.00 0.00 0.00 64 1018.8
20260505202947 66 270 0.9 1.7 0.00 0.00 0.00 70 1018.7
20260505202442 68 270 0.9 1.7 0.00 0.00 0.00 67 1018.8
20260505201933 69 270 0.9 1.7 0.00 0.00 0.00 63 1018.6
20260505201417 69 270 0.0 1.7 0.00 0.00 0.00 67 1018.6
20260505200912 70 270 0.9 1.7 0.00 0.00 0.00 60 1018.7
20260505200357 70 270 0.0 1.7 0.00 0.00 0.00 60 1018.6
20260505195850 71 270 0.0 1.7 0.00 0.00 0.00 59 1018.7
20260505195339 70 270 0.0 1.7 0.00 0.00 0.00 57 1018.6
20260505194826 70 270 0.0 1.7 0.00 0.00 0.00 64 1018.7
20260505194326 70 270 0.9 1.7 0.00 0.00 0.00 61 1018.7
20260505193806 72 270 0.0 1.7 0.00 0.00 0.00 63 1018.7
20260505193259 73 270 0.9 1.7 0.00 0.00 0.00 54 1018.6
20260505192747 73 270 0.0 1.7 0.00 0.00 0.00 51 1018.6
20260505192235 73 293 0.9 1.7 0.00 0.00 0.00 53 1018.7
20260505191725 73 293 0.0 1.7 0.00 0.00 0.00 48 1018.6
20260505191228 73 338 0.9 1.7 0.00 0.00 0.00 42 1018.5
20260505190709 74 293 0.9 1.7 0.00 0.00 0.00 48 1018.6
20260505190155 75 293 0.9 1.7 0.00 0.00 0.00 44 1018.6
20260505185646 76 293 1.7 3.5 0.00 0.00 0.00 45 1018.7
20260505184624 81 338 1.7 6.1 0.00 0.00 0.00 31 1018.8
20260505184117 83 23 0.0 5.2 0.00 0.00 0.00 18 1018.7